Location: All Nations United Methodist Church
(33.0215°N, 96.7483°W)
Time: 15:11:15
(UTC+00:00)

Nadezhda 4 Rocket - Pass Details

Date: 24 January 2021
Orbit: 949 x 992 km, 83.0° (Epoch: 07 March)

Event Time Altitude Azimuth Distance (km) Brightness Sun altitude
Rises 12:15:42 0° 347° (NNW) 3,627 6.7 -15.0°
Reaches altitude 10° 12:18:15 10° 342° (NNW) 2,677 6.0 -14.5°
Maximum altitude 12:24:06 50° 269° (W) 1,193 4.1 -13.3°
Drops below altitude 10° 12:29:57 10° 196° (SSW) 2,669 6.3 -12.1°
Sets 12:32:30 0° 191° (S) 3,615 7.0 -11.6°
